Home   Weather   Aqtobe   Past weeks

Flag for Kazakhstan Past Weather in Aqtobe, Kazakhstan — Yesterday and Last 2 Weeks

Now
-8 °F

Clear.


Feels Like: -21 °F
Forecast: -1 / 11 °F
Wind: 6 mph from West

Location: Aktjubinsk

Current Time: Jan 19, 2017 at 8:28:01 pm

Latest Report: Jan 19, 2017 at 7:30 pm


Visibility: 6 mi

Pressure: 30.27 "Hg

Humidity: 77%

Dew Point: -13 °F

Location of AqtobeLocation

Past Weather in Aqtobe — Graph

°F

Aqtobe Temperature Yesterday

Maximum temperature yesterday: 9 °F (at 3:00 pm)
Minimum temperature yesterday: -15 °F (at 9:00 am)
Average temperature yesterday: -4 °F

High & Low Weather Summary for the Past Weeks

 TemperatureHumidityPressure
High34 °F (Jan 6, 3:30 pm)100% (Jan 6, 10:00 am)30.60 "Hg (Jan 6, 10:00 am)
Low-15 °F (Jan 15, 9:00 am)62% (Jan 16, 12:30 pm)29.86 "Hg (Jan 4, 7:00 pm)
Average10 °F86%30.33 "Hg
* Reported Jan 4 7:00 pm — Jan 19 7:00 pm, Aqtobe, Weather by CustomWeather, © 2017

Note: Actual official high and low records may vary slightly from our data, if they occured in-between our weather recording intervals... More about our weather records

Advertising

Aqtobe Weather History for the Previous 24 Hours

Scroll right to see more
 ConditionsComfort  
Time TempWeatherWind HumidityBarometerVisibility
7:00 pm
Thu, Jan 19
-4 °FClear.6 mph84%30.27 "Hg10 mi
6:30 pm-4 °FClear.6 mph84%30.27 "Hg10 mi
6:00 pm-2 °FClear.6 mph84%30.27 "Hg10 mi
5:30 pm0 °FClear.8 mph78%30.27 "HgN/A
5:00 pm1 °FClear.6 mph78%30.27 "HgN/A
4:30 pm3 °FClear.6 mph78%30.27 "Hg4 mi
4:00 pm3 °FSunny.8 mph78%30.27 "Hg10 mi
3:30 pm3 °FClear.3 mph72%30.27 "HgN/A
3:00 pm1 °FPassing clouds.3 mph71%30.27 "Hg5 mi
2:30 pm0 °FPassing clouds.3 mph78%30.27 "Hg5 mi
2:00 pm0 °FSnow flurries. Passing clouds.1 mph84%30.27 "Hg3 mi
1:30 pm0 °FSnow flurries. Passing clouds.1 mph84%30.27 "Hg3 mi
1:00 pm-2 °FPassing clouds.1 mph84%30.27 "Hg4 mi
12:30 pm-4 °FSnow flurries. Passing clouds.3 mph84%30.30 "Hg3 mi
12:00 pm-4 °FSnow flurries. Passing clouds.3 mph77%30.30 "Hg3 mi
11:30 am-8 °FClear.3 mph77%30.30 "Hg4 mi
11:00 am-9 °FClear.3 mph84%30.30 "Hg4 mi
10:30 am-11 °FClear.3 mph76%30.30 "Hg4 mi
10:00 am-13 °FPassing clouds.3 mph76%30.30 "HgN/A
9:30 am-15 °FPassing clouds.3 mph76%30.30 "HgN/A
9:00 am-15 °FPassing clouds.1 mph76%30.30 "HgN/A
8:30 am-11 °FPassing clouds.6 mph76%30.30 "HgN/A
8:00 am-11 °FPassing clouds.3 mph76%30.30 "HgN/A
7:30 am-13 °FClear.3 mph83%30.30 "Hg10 mi
7:00 am-11 °FPassing clouds.3 mph76%30.30 "HgN/A
6:30 am-9 °FPassing clouds.3 mph77%30.30 "Hg4 mi
6:00 am-11 °FPassing clouds.1 mph84%30.30 "Hg6 mi
5:30 am-9 °FPassing clouds.3 mph77%30.30 "Hg4 mi
5:00 am-8 °FPassing clouds.3 mph77%30.30 "Hg5 mi
4:30 am-8 °FPassing clouds.3 mph77%30.33 "Hg5 mi
4:00 am-8 °FPassing clouds.6 mph77%30.33 "Hg5 mi
3:30 am-8 °FPassing clouds.1 mph84%30.33 "Hg5 mi
3:00 am-8 °FPassing clouds.1 mph84%30.33 "HgN/A
2:30 am-8 °FPassing clouds.3 mph77%30.33 "Hg4 mi
2:00 am-9 °FPassing clouds.3 mph84%30.33 "HgN/A
1:30 am-8 °FPassing clouds.1 mph84%30.33 "Hg5 mi
1:00 am-8 °FClear.1 mph84%30.36 "Hg10 mi
12:30 am-8 °FPassing clouds.3 mph77%30.36 "HgN/A
12:00 am-8 °FClear.3 mph84%30.36 "Hg10 mi
11:30 pm
Wed, Jan 18
-6 °FClear.3 mph77%30.36 "Hg10 mi
11:00 pm-8 °FClear.3 mph77%30.36 "Hg10 mi
10:30 pm-9 °FClear.1 mph84%30.39 "Hg10 mi
10:00 pm-9 °FClear.3 mph84%30.36 "Hg10 mi
9:30 pm-9 °FClear.6 mph84%30.39 "Hg10 mi
9:00 pm-9 °FClear.6 mph77%30.39 "HgN/A
8:30 pm-8 °FClear.3 mph84%30.39 "Hg6 mi
8:00 pm-4 °FClear.No wind84%30.39 "Hg5 mi
Weather by CustomWeather, © 2017

See weather overviewHow to use our weather pages